www.pogodaiklimat.ru

Погода и климат >> Архив погоды >> Бразилия >> Arraial Do Cabo


ПОГОДА в Arraial Do Cabo

  • Прогноз погоды в Arraial Do Cabo
  • Монитор погоды в Arraial Do Cabo
  • Климат города

АРХИВ ПОГОДЫ в Arraial Do Cabo

Время (UTC), дата Ветер
(напр.,м/с)
 
Видим.   Явления Облачность Т
(С)
Тd
(С)
f
(%)
Тe
(С)
Тes
(С)
Комфортность P
(гПа)
Po
(гПа)
Тmin
(С)
Tmax
(С)
R
(мм)
R24
(мм)
S
(см)
16 17.09 СВ 2
{2}
н/о н/о +22.9 +19 +19 1015.3 1014.9
17 17.09 Ю 1
{2}
н/о н/о +21.2 -25.8 3 +19 +19 1014.9 1014.5 1
18 17.09 В 1
{2}
н/о н/о +21.2 -25.8 3 +19 +19 1014.5 1014.1 1
19 17.09 СВ 4
{5}
н/о н/о +20.5 -26.3 3 +19 +19 1014.3 1013.9 1
20 17.09 В 4
{6}
н/о н/о +20.7 -26.2 3 +19 +19 1014.1 1013.7 1
21 17.09 В 4
{6}
н/о н/о +20.7 -26.2 3 +19 +19 1014.0 1013.6 0.2
22 17.09 СВ 5
{6}
н/о н/о +20.9 -26.0 3 +19 +19 1014.2 1013.8
23 17.09 СВ 5
{7}
н/о н/о +21.0 -26.0 3 +19 +19 1014.3 1013.9 0.2
00 18.09 СВ 5
{8}
н/о н/о +21.0 -26.0 3 +19 +19 1014.2 1013.8 0.2
01 18.09 СВ 5
{9}
н/о н/о +21.1 -25.9 3 +19 +19 1014.3 1013.9 0.6
02 18.09 СВ 4
{7}
н/о н/о +21.3 -25.7 3 +19 +19 1014.1 1013.7 0.4
03 18.09 СВ 5
{7}
н/о н/о +21.4 -25.7 3 +19 +19 1013.8 1013.4 0.2
04 18.09 СВ 5
{7}
н/о н/о +21.3 -25.7 3 +19 +19 1013.3 1012.9
05 18.09 СВ 4
{6}
н/о н/о +21.3 -25.7 3 +19 +19 1012.8 1012.4
06 18.09 СВ 3
{6}
н/о н/о +21.2 -25.8 3 +19 +19 1012.5 1012.1
07 18.09 СВ 3
{5}
н/о н/о +21.3 -25.8 3 +19 +19 1012.1 1011.7
08 18.09 СВ 3
{5}
н/о н/о +21.4 -25.7 3 +19 +19 1012.3 1011.9
09 18.09 СВ 4
{6}
н/о н/о +21.5 -25.6 3 +19 +19 1012.1 1011.7
10 18.09 СВ 3
{7}
н/о н/о +21.7 -25.5 3 +19 +19 1012.8 1012.4
11 18.09 СВ 2
{5}
н/о н/о +22.4 -25.0 3 +19 +19 1013.7 1013.3
12 18.09 СВ 3
{4}
н/о н/о +23.3 -24.4 3 +20 +20 1013.5 1013.1
13 18.09 СВ 3
{4}
н/о н/о +23.5 -24.2 3 +20 +20 1013.9 1013.5
14 18.09 В 2
{4}
н/о н/о +22.9 -24.7 3 +20 +20 1012.7 1012.3
15 18.09 В 2
{3}
н/о н/о +23.4 -24.3 3 +20 +20 1011.7 1011.3
16 18.09 В 2
{3}
н/о н/о +24.5 +21 +21 комфорт 1010.9 1010.5
17 18.09 В 2
{3}
н/о н/о +26.8 +22 +22 комфорт 1010.1 1009.7
18 18.09 В 2
{2}
н/о н/о +26.5 -24.1 3 +22 +22 комфорт 1009.6 1009.2
19 18.09 В 2
{2}
н/о н/о +24.8 +21 +21 комфорт 1009.6 1009.2
20 18.09 В 2
{2}
н/о н/о +24.5 -23.6 3 +21 +21 комфорт 1009.8 1009.4
21 18.09 В 2
{2}
н/о н/о +23.7 -24.1 3 +20 +20 1010.5 1010.1
22 18.09 В 1
{2}
н/о н/о +23.5 -24.3 3 +20 +20 1011.0 1010.6
00 19.09 ЮВ 1
{2}
н/о н/о +23.2 -24.5 3 +20 +20 1012.1 1011.7
02 19.09 ЮЗ 1
{1}
н/о н/о +23.8 -24.1 3 +20 +20 1012.2 1011.8
01 19.09 З 1
{1}
н/о н/о +23.9 -24.0 3 +21 +21 комфорт 1012.2 1011.8
03 19.09 ЮВ 1
{1}
н/о н/о +23.3 -24.4 3 +20 +20 1011.7 1011.3
04 19.09 ЮВ 1
{2}
н/о н/о +22.9 -24.7 3 +20 +20 1011.1 1010.7
05 19.09 В 1
{2}
н/о н/о +22.7 -24.8 3 +20 +20 1010.9 1010.5
06 19.09 В 1
{2}
н/о н/о +22.2 -25.1 3 +19 +19 1010.5 1010.1
08 19.09 В 1
{1}
н/о н/о +22.1 -25.2 3 +19 +19 1011.2 1010.8
07 19.09 В 1
{2}
н/о н/о +22.3 -25.1 3 +19 +19 1010.5 1010.1
09 19.09 В 1
{2}
н/о н/о +22.0 -25.2 3 +19 +19 1011.9 1011.5
10 19.09 В 1
{2}
н/о н/о +22.9 -24.7 3 +20 +20 1012.7 1012.3
11 19.09 В 1
{2}
н/о н/о +25.1 -23.2 3 +21 +21 комфорт 1013.6 1013.2
12 19.09 В 2
{2}
н/о н/о +25.8 +21 +21 комфорт 1014.1 1013.7
14 19.09 В 2
{2}
н/о н/о +27.9 +23 +23 комфорт 1014.4 1014.0
13 19.09 В 2
{2}
н/о н/о +27.1 +22 +22 комфорт 1014.4 1014.0
15 19.09 В 2
{3}
н/о н/о +28.7 +24 +24 комфорт 1013.8 1013.4
16 19.09 Ю 1
{2}
н/о н/о +29.7 +25 +25 комфорт 1013.5 1013.1
17 19.09 Ю 2
{3}
н/о н/о +29.5 +24 +24 комфорт 1013.3 1012.9
18 19.09 ЮЗ 1
{3}
н/о н/о +30.0 +25 +25 комфорт 1012.8 1012.4
20 19.09 Ю 1
{4}
н/о н/о +27.6 +23 +23 комфорт 1013.6 1013.2
19 19.09 ЮВ 2
{3}
н/о н/о +29.0 +24 +24 комфорт 1013.3 1012.9
21 19.09 В 1
{3}
н/о н/о +25.4 +21 +21 комфорт 1014.2 1013.8
22 19.09 В 1
{2}
н/о н/о +24.8 -23.4 3 +21 +21 комфорт 1014.7 1014.3
23 19.09 В 1
{2}
н/о н/о +23.9 -24.0 3 +21 +21 комфорт 1015.9 1015.5
00 20.09 В 1
{2}
н/о н/о +23.1 -24.5 3 +20 +20 1016.3 1015.9
02 20.09 штиль 0
{1}
н/о н/о +23.0 -24.6 3 +20 +20 1016.4 1016.0
01 20.09 ЮВ 1
{1}
н/о н/о +23.1 -24.5 3 +20 +20 1016.6 1016.2
03 20.09 штиль 0
{1}
н/о н/о +22.8 -24.8 3 +20 +20 1015.7 1015.3
04 20.09 штиль 0
{1}
н/о н/о +22.8 -24.7 3 +20 +20 1015.6 1015.2
05 20.09 З 1
{1}
н/о н/о +22.8 -24.7 3 +20 +20 1015.5 1015.1
06 20.09 ЮВ 1
{1}
н/о н/о +22.4 -25.0 3 +19 +19 1014.8 1014.4
08 20.09 СВ 3
{4}
н/о н/о +23.1 -24.5 3 +20 +20 1015.2 1014.8
07 20.09 штиль 0
{1}
н/о н/о +22.2 -25.1 3 +19 +19 1014.8 1014.4
09 20.09 В 3
{4}
н/о н/о +22.7 -24.8 3 +20 +20 1015.6 1015.2
10 20.09 В 2
{3}
н/о н/о +22.9 -24.7 3 +20 +20 1016.3 1015.9
11 20.09 В 3
{4}
н/о н/о +23.1 -24.5 3 +20 +20 1016.8 1016.4
12 20.09 В 3
{4}
н/о н/о +23.2 -24.5 3 +20 +20 1017.2 1016.8
14 20.09 В 3
{5}
н/о н/о +23.9 -24.0 3 +21 +21 комфорт 1016.2 1015.8 0.2
13 20.09 В 3
{4}
н/о н/о +23.4 -24.3 3 +20 +20 1016.6 1016.2
15 20.09 В 3
{3}
н/о н/о +24.6 -23.5 3 +21 +21 комфорт 1015.0 1014.6
16 20.09 В 4
{4}
н/о н/о +23.5 -24.3 3 +20 +20 1013.5 1013.1
17 20.09 В 3
{4}
н/о н/о +24.2 -23.8 3 +21 +21 комфорт 1013.3 1012.9
18 20.09 В 3
{5}
н/о н/о +24.0 -23.9 3 +21 +21 комфорт 1013.2 1012.8
20 20.09 В 3
{5}
н/о н/о +23.8 -24.1 3 +20 +20 1013.6 1013.2
19 20.09 СВ 4
{5}
н/о н/о +24.2 -23.8 3 +21 +21 комфорт 1013.4 1013.0
21 20.09 СВ 3
{5}
н/о н/о +24.0 -24.0 3 +21 +21 комфорт 1014.2 1013.8
22 20.09 СВ 3
{5}
н/о н/о +23.5 -24.2 3 +20 +20 1014.8 1014.4
23 20.09 СВ 4
{5}
н/о н/о +23.5 -24.3 3 +20 +20 1015.3 1014.9
00 21.09 СВ 4
{5}
н/о н/о +23.4 -24.3 3 +20 +20 1016.0 1015.6
02 21.09 В 3
{4}
н/о н/о +23.0 -24.6 3 +20 +20 1015.6 1015.2
01 21.09 СВ 3
{5}
н/о н/о +23.3 -24.4 3 +20 +20 1016.2 1015.8
03 21.09 СВ 2
{3}
н/о н/о +23.0 -24.6 3 +20 +20 1015.4 1015.0
04 21.09 В 2
{4}
н/о н/о +23.0 -24.6 3 +20 +20 1014.4 1014.0
05 21.09 В 2
{3}
н/о н/о +22.7 -24.8 3 +20 +20 1013.8 1013.4
06 21.09 СВ 2
{5}
н/о н/о +22.8 -24.7 3 +20 +20 1013.8 1013.4
08 21.09 СВ 3
{5}
н/о н/о +22.6 -24.9 3 +20 +20 1013.7 1013.3
07 21.09 СВ 4
{5}
н/о н/о +22.7 -24.8 3 +20 +20 1013.0 1012.6 0.2
09 21.09 СВ 2
{5}
н/о н/о +22.5 -25.0 3 +20 +20 1014.5 1014.1 1
10 21.09 СВ 3
{6}
н/о н/о +22.2 -25.2 3 +19 +19 1014.7 1014.3 0.2
11 21.09 СВ 4
{6}
н/о н/о +21.7 -25.5 3 +19 +19 1015.2 1014.8 0.2
12 21.09 СВ 3
{6}
н/о н/о +22.6 -24.9 3 +20 +20 1015.1 1014.7 0.2
14 21.09 СВ 2
{5}
н/о н/о +23.5 -24.3 3 +20 +20 1015.1 1014.7
13 21.09 СВ 3
{6}
н/о н/о +22.6 -24.8 3 +20 +20 1015.2 1014.8
15 21.09 СВ 2
{4}
н/о н/о +23.6 -24.2 3 +20 +20 1014.6 1014.2
16 21.09 В 2
{4}
н/о н/о +23.4 -24.3 3 +20 +20 1013.8 1013.4
17 21.09 В 2
{3}
н/о н/о +23.1 -24.6 3 +20 +20 1012.9 1012.5 0.4
18 21.09 В 2
{3}
н/о н/о +24.6 -23.5 3 +21 +21 комфорт 1012.6 1012.2
20 21.09 ЮЗ 2
{3}
н/о н/о +23.4 -24.3 3 +20 +20 1013.8 1013.4
19 21.09 В 2
{3}
н/о н/о +24.1 -23.9 3 +21 +21 комфорт 1013.2 1012.8
21 21.09 З 1
{3}
н/о н/о +23.1 -24.6 3 +20 +20 1014.7 1014.3
22 21.09 ЮЗ 1
{2}
н/о н/о +22.7 -24.8 3 +20 +20 1015.0 1014.6
23 21.09 З 1
{3}
н/о н/о +22.8 -24.7 3 +20 +20 1015.9 1015.5
00 22.09 З 1
{3}
н/о н/о +22.8 -24.8 3 +20 +20 1016.2 1015.8
02 22.09 З 2
{3}
н/о н/о +22.6 -24.9 3 +20 +20 1016.4 1016.0
01 22.09 З 1
{2}
н/о н/о +22.8 -24.7 3 +20 +20 1016.5 1016.1
03 22.09 З 2
{3}
н/о н/о +22.5 -25.0 3 +20 +20 1016.2 1015.8
04 22.09 З 2
{4}
н/о н/о +22.3 -25.1 3 +19 +19 1015.8 1015.4
05 22.09 З 2
{4}
н/о н/о +22.1 -25.2 3 +19 +19 1015.2 1014.8
08 22.09 З 2
{3}
н/о н/о +21.9 -25.3 3 +19 +19 1014.8 1014.4
07 22.09 З 2
{3}
н/о н/о +22.0 -25.3 3 +19 +19 1014.5 1014.1
09 22.09 З 2
{3}
н/о н/о +21.9 -25.3 3 +19 +19 1015.4 1015.0
10 22.09 З 2
{3}
н/о н/о +22.7 -24.8 3 +20 +20 1016.0 1015.6
11 22.09 З 2
{3}
н/о н/о +23.8 -24.1 3 +20 +20 1016.8 1016.4
12 22.09 З 2
{4}
н/о н/о +23.9 -24.0 3 +21 +21 комфорт 1017.2 1016.8
14 22.09 З 2
{4}
н/о н/о +24.8 -23.4 3 +21 +21 комфорт 1016.8 1016.4
13 22.09 З 2
{4}
н/о н/о +24.5 -23.6 3 +21 +21 комфорт 1017.3 1016.9
15 22.09 З 1
{3}
н/о н/о +25.9 +22 +22 комфорт 1016.4 1016.0
16 22.09 Ю 2
{4}
н/о н/о +24.1 +20 +20 1016.0 1015.6
17 22.09 ЮВ 3
{6}
н/о н/о +24.2 +20 +20 1015.5 1015.1
18 22.09 ЮВ 3
{6}
н/о н/о +23.5 +20 +20 1015.3 1014.9
20 22.09 ЮВ 2
{5}
н/о н/о +22.9 -24.7 3 +20 +20 1015.7 1015.3
19 22.09 ЮВ 3
{6}
н/о н/о +23.4 +19 +19 1015.3 1014.9
21 22.09 ЮВ 2
{4}
н/о н/о +22.2 -25.1 3 +19 +19 1016.1 1015.7
22 22.09 ЮВ 1
{3}
н/о н/о +22.0 -25.3 3 +19 +19 1016.8 1016.4
23 22.09 ЮВ 1
{2}
н/о н/о +21.8 -25.4 3 +19 +19 1017.3 1016.9
00 23.09 ЮВ 1
{2}
н/о н/о +21.6 -25.6 3 +19 +19 1017.7 1017.3
02 23.09 ЮВ 1
{2}
н/о н/о +21.3 -25.7 3 +19 +19 1017.8 1017.4
01 23.09 ЮВ 1
{2}
н/о н/о +21.6 -25.6 3 +19 +19 1017.9 1017.5
03 23.09 ЮВ 1
{3}
н/о н/о +21.4 -25.7 3 +19 +19 1017.1 1016.7
04 23.09 В 2
{3}
н/о н/о +21.7 -25.5 3 +19 +19 1016.3 1015.9
05 23.09 В 3
{3}
н/о н/о +21.6 -25.6 3 +19 +19 1015.7 1015.3
06 23.09 В 2
{3}
н/о н/о +21.1 -25.9 3 +19 +19 1015.0 1014.6
08 23.09 В 3
{4}
н/о н/о +21.2 -25.8 3 +19 +19 1014.9 1014.5
07 23.09 В 3
{4}
н/о н/о +21.3 -25.8 3 +19 +19 1014.8 1014.4
09 23.09 В 3
{4}
н/о н/о +21.6 -25.6 3 +19 +19 1015.5 1015.1
10 23.09 В 3
{4}
н/о н/о +22.7 -24.8 3 +20 +20 1016.5 1016.1
11 23.09 В 3
{4}
н/о н/о +23.9 -24.0 3 +21 +21 комфорт 1017.3 1016.9
12 23.09 СВ 3
{4}
н/о н/о +24.5 +21 +21 комфорт 1017.3 1016.9
14 23.09 СВ 4
{6}
н/о н/о +25.4 +21 +21 комфорт 1016.5 1016.1
13 23.09 СВ 4
{5}
н/о н/о +24.8 +21 +21 комфорт 1017.0 1016.6
15 23.09 В 4
{6}
н/о н/о +25.4 +21 +21 комфорт 1015.6 1015.2
16 23.09 В 4
{5}
н/о н/о +25.3 +21 +21 комфорт 1014.7 1014.3
17 23.09 В 4
{5}
н/о н/о +25.0 -23.3 3 +21 +21 комфорт 1014.1 1013.7
20 23.09 В 4
{6}
н/о н/о +23.1 -24.5 3 +20 +20 1013.9 1013.5
19 23.09 В 4
{6}
н/о н/о +23.9 -24.0 3 +21 +21 комфорт 1013.7 1013.3
22 23.09 В 5
{6}
н/о н/о +22.6 -24.9 3 +20 +20 1014.8 1014.4
23 23.09 В 5
{7}
н/о н/о +22.5 -24.9 3 +20 +20 1015.2 1014.8
00 24.09 В 5
{7}
н/о н/о +22.5 -24.9 3 +20 +20 1015.7 1015.3
02 24.09 В 5
{7}
н/о н/о +22.4 -25.0 3 +19 +19 1015.8 1015.4
01 24.09 В 5
{7}
н/о н/о +22.4 -25.0 3 +19 +19 1016.0 1015.6
03 24.09 В 5
{7}
н/о н/о +22.3 -25.1 3 +19 +19 1015.4 1015.0
04 24.09 СВ 4
{6}
н/о н/о +22.2 -25.1 3 +19 +19 1015.1 1014.7
05 24.09 СВ 5
{7}
н/о н/о +22.6 -24.8 3 +20 +20 1014.6 1014.2
06 24.09 СВ 4
{6}
н/о н/о +22.6 -24.9 3 +20 +20 1014.3 1013.9
08 24.09 СВ 4
{6}
н/о н/о +22.6 -24.9 3 +20 +20 1014.1 1013.7
07 24.09 СВ 4
{6}
н/о н/о +22.6 -24.9 3 +20 +20 1013.8 1013.4
09 24.09 СВ 3
{5}
н/о н/о +22.6 -24.9 3 +20 +20 1014.6 1014.2
10 24.09 СВ 3
{6}
н/о н/о +23.0 -24.6 3 +20 +20 1015.3 1014.9
11 24.09 СВ 4
{6}
н/о н/о +23.8 -24.1 3 +20 +20 1015.5 1015.1
14 24.09 В 3
{5}
н/о н/о +25.8 -22.7 3 +22 +22 комфорт 1015.2 1014.8

 

Местоположение метеостанции Arraial Do Cabo (Бразилия): широта -22.98 долгота -42.02 высота над уровнем моря 6 м.

В архиве по умолчанию представлена погода в Arraial Do Cabo за последнюю неделю. Архивные данные за месяц целиком и за предыдущие месяцы, начиная с января 2011 года, Вы можете получить, выбрав интересующий диапазон дат из раскрывающегося списка и нажав кнопку "Ввод!".


*Определитесь, кто Вы:
робот инопланетянин человек

Внимание! Время в таблицах - всемирное. Для получения местного времени необходимо прибавить поправку, которая в Arraial Do Cabo равна -3 ч.

Смотрите также архив погоды в соседних городах и на ближайших метеорологических станциях:

Погода в Macae (Бразилия) (70 км)
Погода в Nova Friburgo (Бразилия) (99 км)
Погода в Cordeiro (Бразилия) (111 км)
Погода в Teresopolis (Бразилия) (116 км)
Погода в Ilha Rasa (Бразилия) (116 км)
Погода в Rio De Janeiro Airport (Бразилия) (117 км)
Погода в Rio De Janeiro (Бразилия) (118 км)
Погода в Rio de Janeiro - Forte de Copacabana (Бразилия) (120 км)
Погода в Galeao (Бразилия) (127 км)
Погода в Xerem (Бразилия) (136 км)

Пояснения к столбцам:

Ветер - указаны скорость ветра в м/с - средняя за 10 мин, порывы в срок и между сроками (в фигурных скобках) и направление, откуда дует ветер: С - северный, СВ - северо-восточный, В - восточный, ЮВ - юго-восточный, Ю - южный, ЮЗ - юго-западный, З - западный, СЗ - северо-западный.
Видимость - горизонтальная дальность видимости в метрах или километрах. При видимости от 1 до 10 км при отсутствии осадков обычно наблюдается дымка, при ухудшении видимости до 1 км и менее - туман. В сухую погоду видимость может ухудшаться дымом, пылью или мглою.
Явления - указаны атмосферные явления, наблюдавшиеся в срок или в последний час перед сроком; фигурными скобками обозначены явления, наблюдавшиеся между сроками (за 1-3 часа до срока); квадратными скобками обозначены град или гололедные отложения с указанием их диаметра в мм.
Облачность - указаны через наклонную черту общая и нижняя облачность в баллах и высота нижней границы облаков в метрах; квадратными скобками обозначены формы облаков: Ci - перистые, Cs - перисто-слоистые, Cc - перисто-кучевые, Ac - высококучевые, As - высокослоистые, Sc - слоисто-кучевые, Ns - слоисто-дождевые, Cu - кучевые, Cb - кучево-дождевые. Подробнее классификацию облаков см. в Атласе облаков (PDF).
T - Температура воздуха - температура, измеренная на высоте 2 м над землей.
Td - Температура точки росы - температура, при понижении до которой содержащийся в воздухе водяной пар достигнет насыщения.
f - Относительная влажность воздуха - влажноcть воздуха, измеренная на высоте 2 м над землей.
Te - Эффективная температура - температура, которую ощущает одетый по сезону человек в тени. Характеристика душности погоды. При расчете учитывается влияние влажности воздуха и скорости ветра на теплоощущения человека.
Tes - Эффективная температура на солнце - температура, которую ощущает человек, с поправкой на солнечный нагрев. Характеристика знойности погоды. Зависит от высоты солнца над горизонтом, облачности и скорости ветра. Ночью, в пасмурную погоду, а также при ветре 12 м/с и более поправка равна нулю.
P - Атмосферное давление - приведенное к уровню моря атмосферное давление.
Po - Атмосферное давление - измеренное на уровне метеостанции атмосферное давление.
Tmin - Минимальная температура - минимум температуры воздуха на высоте 2 м над землей.
Tmax - Максимальная температура - максимум температуры воздуха на высоте 2 м над землей.
R - Количество осадков - Количество выпавших осадков за период времени, мм. При наведении курсора мыши на число - период времени, за который выпало указанное количество осадков.
R24 - Количество осадков - Количество выпавших осадков за 24 часа, мм.
S - Снежный покров - Высота снежного покрова, см. При наведении курсора мыши на число - состояние снежного покрова и степень покрытия местности в баллах.